SL-14 DEB, 45284

Orbit data source: Space-Track

SL-14 DEB, 45284 is space debris in LEO originally from a launch on Thu, 15 Aug 1991 UTC launched from the Plesetsk Missile And Space Complex (PKMTR). Debris objects in space refer to the collection of defunct objects orbiting the Earth. Examples of debris include non-operational satellites, rocket bodies, and fragments generated from explosions, collisions, or faulty payload assembly.

Loading next visibility...
Identifier
45284, 1991-056W
Orbit
LEO
Country
Flag of CISCIS
Related business
Manufacturer
Unknown
Mission
Spacecraft
Bus & Motor
Unknown
Mass
Unknown
Launch date (UTC)
1991-08-15 (34 years ago)
Launch vehicle
Unknown
Launch site
Plesetsk Missile And Space Complex (PKMTR)
Object type
Payload
Rocket body
Debris
Shape & HBR
Unknown shape, 0.2 m
Radar Cross Section
Small (<0.1 m²)

Expand to show TLE details & history
Last TLE update: 20 hours ago

TLE from 20 hours ago
0 SL-14 DEB
1 45284U 91056W   25348.72903422 -.00000890  00000-0 -14894-2 0  9992
2 45284  82.5689 214.5905 0114776 345.6747  14.1144 13.44498077284344
Epoch: 2025-12-14T17:29Z
TLE epoch observation values (Epoch: 2025-12-14T17:29:48.556Z)
Latitude
-0.00005°
Longitude
-131.4996°
Altitude
1,012.304 km
Speed
7.386 km/s
True Right ascension
14h 18m 21s
True Declination
0° 00' 00"
Sunlit
Object was in daylight at epoch
Visualization orbit readout
Latitude
Unknown
Longitude
Unknown
Altitude
Unknown
Speed
Unknown
Apparent Right ascension
Unknown
Apparent Declination
Unknown
Sunlit
N/A
Visualization observer readout
Local Sidereal Time
12:18:35
Azimuth
Unknown
Elevation
Unknown
Doppler factor
Unknown
Orbital elements
Apogee altitude
1,175.489 km
Perigee altitude
1,004.062 km
Semi-major axis
7,467.912 km
Eccentricity
0.01148
Inclination
82.5689°
RAAN
214.5905°
Arg. of periapsis
345.6747°
True anomaly
14.43965°
Mean anomaly
14.1144°
Eccentric anomaly
14.27657°
Mean motion
3.36314 °/min
Orbital period
107.04 mins
BSTAR
-0.0014894
Loading maneuver chart data...
Computing Atmospheric mass density...
Loading historical data...
Loading historical data...
Loading historical data...
Loading historical data...
Loading historical data...
Loading historical data...
Loading historical data...

Documentation

Showing up to 5 results
|